Flag for Germany Weather past 2 weeks in Kirchheim unter Teck, Baden-Württemberg, Germany

Now
57 °F

Clear.


Feels Like: 56 °F
Forecast: 50 / 79 °F
Wind: 7 mph from West

Location: Stuttgart-Echterdingen

Current Time: Jun 3, 2015 at 6:07:29 AM

Latest Report: Jun 3, 2015 at 5:20 AM


Visibility: 10 mi

Pressure: 30.12 "Hg

Humidity: 77%

Dew point: 50 °F

Location of Kirchheim unter TeckLocation

Historic Weather in Kirchheim unter Teck — Graph

°F

Kirchheim unter Teck temperature yesterday

Maximum temperature yesterday: 79 °F (at 4:50 PM)
Minimum temperature yesterday: 50 °F (at 5:20 AM)
Average temperature yesterday: 65 °F

Past Weeks' High & Low Weather Summary

 TemperatureHumidityPressure
High79 °F (Jun 2, 4:50 PM)100% (May 26, 1:50 AM)30.30 "Hg (May 26, 1:50 AM)
Low37 °F (May 22, 5:50 AM)27% (May 22, 3:20 PM)29.74 "Hg (May 19, 4:20 AM)
Average57 °F68%30.05 "Hg
* Reported May 19 4:20 AM — Jun 3 4:50 AM, Kirchheim unter Teck, Weather by CustomWeather, © 2015

Note: Actual official high and low records may vary slightly from our data, if they occured in-between our weather recording intervals... More about our weather records

Advertising

Kirchheim unter Teck weather history for previous 24 hours

 ConditionsComfort  
Time TempWeatherWind HumidityBarometerVisibility
4:50 AM
Wed, Jun 3
57 °FPassing clouds.3 mph77%30.12 "HgN/A
4:20 AM61 °FPassing clouds.3 mph68%30.12 "HgN/A
3:50 AM57 °FClear.6 mph77%30.12 "Hg10 mi
3:20 AM57 °FClear.5 mph77%30.12 "Hg10 mi
2:50 AM57 °FClear.1 mph77%30.12 "Hg10 mi
2:20 AM59 °FPassing clouds.5 mph72%30.12 "HgN/A
1:50 AM59 °FPassing clouds.3 mph72%30.12 "HgN/A
1:20 AM59 °FClear.5 mph72%30.12 "Hg10 mi
12:50 AM59 °FPassing clouds.3 mph68%30.12 "HgN/A
12:20 AM61 °FClear.5 mph68%30.09 "Hg10 mi
11:20 PM
Tue, Jun 2
68 °FPassing clouds.6 mph49%30.09 "HgN/A
10:50 PM66 °FClear.7 mph52%30.09 "Hg10 mi
10:20 PM68 °FClear.5 mph49%30.09 "Hg10 mi
9:50 PM68 °FPassing clouds.5 mph46%30.09 "HgN/A
9:20 PM72 °FPassing clouds.5 mph38%30.07 "HgN/A
8:50 PM73 °FPassing clouds.6 mph33%30.07 "HgN/A
8:20 PM75 °FPassing clouds.8 mph29%30.07 "HgN/A
7:50 PM77 °FPassing clouds.9 mph28%30.07 "HgN/A
7:20 PM77 °FPassing clouds.8 mph34%30.07 "HgN/A
6:50 PM77 °FPassing clouds.13 mph34%30.07 "HgN/A
6:20 PM77 °FSunny.13 mph36%30.07 "Hg10 mi
5:20 PM79 °FSunny.20 mph28%30.07 "Hg10 mi
4:50 PM79 °FPassing clouds.16 mph30%30.07 "HgN/A
4:20 PM77 °FPassing clouds.15 mph36%30.07 "HgN/A
3:50 PM75 °FPassing clouds.13 mph39%30.07 "HgN/A
3:20 PM75 °FPassing clouds.14 mph41%30.07 "HgN/A
2:50 PM75 °FPassing clouds.13 mph44%30.07 "HgN/A
2:20 PM73 °FPassing clouds.16 mph44%30.07 "HgN/A
1:50 PM73 °FPassing clouds.16 mph47%30.07 "HgN/A
1:20 PM72 °FPassing clouds.16 mph50%30.09 "HgN/A
12:50 PM73 °FPartly sunny.15 mph47%30.09 "HgN/A
12:20 PM72 °FPartly sunny.17 mph50%30.09 "HgN/A
11:50 AM70 °FPartly sunny.14 mph53%30.09 "HgN/A
11:20 AM70 °FBroken clouds.12 mph60%30.09 "HgN/A
10:50 AM68 °FBroken clouds.12 mph60%30.09 "HgN/A
10:20 AM68 °FBroken clouds.13 mph60%30.09 "HgN/A
9:50 AM66 °FPartly sunny.3 mph64%30.09 "HgN/A
9:20 AM63 °FPartly sunny.3 mph73%30.09 "HgN/A
8:50 AM61 °FPartly sunny.2 mph83%30.09 "HgN/A
8:20 AM59 °FPartly sunny.2 mph88%30.07 "HgN/A
7:50 AM57 °FBroken clouds.1 mph94%30.07 "HgN/A
7:20 AM55 °FBroken clouds.No wind94%30.07 "HgN/A
6:50 AM54 °FPartly sunny.2 mph94%30.07 "HgN/A
6:20 AM52 °FPassing clouds.No wind100%30.07 "HgN/A
Weather by CustomWeather, © 2015

See weather overviewHow to use our weather pages